TimeCST,TemperatureF,Dew PointF,Humidity,Sea Level PressureIn,VisibilityMPH,Wind Direction,Wind SpeedMPH,Gust SpeedMPH,PrecipitationIn,Events,Conditions,WindDirDegrees,DateUTC
12:53 AM,14.0,3.9,64,30.20,10.0,WNW,8.1,-,N/A,,Clear,290,2013-02-16 06:53:00
1:53 AM,12.9,3.0,65,30.19,10.0,WNW,8.1,-,N/A,,Clear,300,2013-02-16 07:53:00
2:53 AM,12.0,1.9,64,30.18,10.0,NW,8.1,-,N/A,,Clear,310,2013-02-16 08:53:00
3:53 AM,10.9,1.9,67,30.17,10.0,WNW,5.8,-,N/A,,Clear,300,2013-02-16 09:53:00
4:53 AM,10.0,1.9,70,30.18,10.0,WNW,5.8,-,N/A,,Clear,290,2013-02-16 10:53:00
6:53 AM,8.1,1.9,76,30.19,10.0,WNW,5.8,-,N/A,,Clear,290,2013-02-16 12:53:00
7:53 AM,9.0,1.9,73,30.19,10.0,NW,5.8,-,N/A,,Overcast,310,2013-02-16 13:53:00
8:53 AM,10.9,3.0,70,30.19,10.0,WNW,8.1,-,N/A,,Overcast,300,2013-02-16 14:53:00
9:53 AM,14.0,1.0,56,30.19,10.0,NNW,9.2,-,N/A,,Overcast,340,2013-02-16 15:53:00
10:53 AM,15.1,-0.0,51,30.19,10.0,WNW,13.8,19.6,N/A,,Scattered Clouds,300,2013-02-16 16:53:00
11:53 AM,16.0,-0.9,47,30.18,10.0,NW,8.1,18.4,N/A,,Partly Cloudy,310,2013-02-16 17:53:00
12:53 PM,16.0,-2.0,45,30.17,10.0,WNW,13.8,21.9,N/A,,Scattered Clouds,300,2013-02-16 18:53:00
1:53 PM,17.1,-0.9,45,30.16,10.0,West,9.2,-,N/A,,Scattered Clouds,280,2013-02-16 19:53:00
2:53 PM,18.0,-0.0,45,30.16,10.0,North,11.5,-,N/A,,Scattered Clouds,350,2013-02-16 20:53:00
3:53 PM,17.1,-0.9,45,30.17,10.0,NW,9.2,-,N/A,,Mostly Cloudy,320,2013-02-16 21:53:00
4:53 PM,16.0,-0.0,49,30.19,10.0,NW,8.1,-,N/A,,Mostly Cloudy,310,2013-02-16 22:53:00
5:53 PM,15.1,-0.0,51,30.20,10.0,NW,4.6,-,N/A,,Partly Cloudy,320,2013-02-16 23:53:00
6:53 PM,12.9,-0.0,56,30.22,10.0,NW,3.5,-,N/A,,Clear,310,2013-02-17 00:53:00
7:53 PM,12.0,-0.0,59,30.22,10.0,WNW,3.5,-,N/A,,Clear,290,2013-02-17 01:53:00
8:53 PM,10.0,-0.0,64,30.23,10.0,West,3.5,-,N/A,,Clear,270,2013-02-17 02:53:00
9:53 PM,10.0,-0.0,64,30.22,10.0,West,5.8,-,N/A,,Clear,280,2013-02-17 03:53:00
10:53 PM,10.0,-0.9,61,30.22,10.0,WNW,4.6,-,N/A,,Clear,300,2013-02-17 04:53:00
11:53 PM,9.0,-0.9,64,30.22,10.0,WNW,5.8,-,N/A,,Clear,300,2013-02-17 05:53:00